Location: Helion Bumpstead
(52.0500°N, 0.4000°E)
Time: 21:01:01
(UTC+00:00)

Cosmos 1378 Rocket - Pass Details

Date: 15 November 2025
Orbit: 595 x 618 km, 82.5° (Epoch: 14 December)

Event Time Altitude Azimuth Distance (km) Brightness Sun altitude
Rises 06:12:24 0° 212° (SSW) 2,829 6.8 -10.2°
Reaches altitude 10° 06:14:44 10° 222° (SW) 1,931 5.9 -9.8°
Maximum altitude 06:18:40 35° 289° (WNW) 967 4.0 -9.2°
Drops below altitude 10° 06:22:39 10° 356° (N) 1,948 5.9 -8.7°
Sets 06:25:01 0° 5° (N) 2,858 6.8 -8.3°
